#timestamp,LO_Frequency,Hit,StdDev 
1553778015.6,286047002.3,N
1553778035.4,286047001.0,N
1553778055.3,286047001.1,N
1553778075.1,286047001.0,N
1553778095.8,286046999.2,N
1553778115.7,286046996.8,N
1553778135.5,286046999.3,N
1553778155.4,286046996.8,N
1553778175.2,286046998.7,N
1553778195.0,286046998.9,N
1553778195.9,286046998.9,N
1553778215.8,286046998.4,N
1553778235.6,286046999.4,N
1553778255.5,286046998.2,N
1553778275.3,286047000.8,N
1553778295.1,286047001.1,N
1553778315.9,286046999.8,N
1553778335.7,286047000.1,N
1553778355.5,286047002.3,N
1553778375.4,286047001.9,N
1553778395.2,286047002.8,N
1553778415.0,286047001.0,N
1553778446.0,286046998.3,E
1553778455.9,286046998.3,N
1553778475.7,286047002.4,P
1553778495.6,286047001.7,N
1553778515.4,286047003.6,N
1553778535.3,286047004.1,N
1553778555.1,286047003.8,N
1553778556.0,286047003.8,N
1553778575.8,286047005.9,Y
1553778595.7,286047002.2,P
1553778615.5,286047001.6,P
1553778635.3,286047002.6,P
1553778655.2,286047002.7,Y
1553778675.0,286047000.8,P
1553778675.9,286047000.8,N
1553778695.8,286047000.7,N
1553778715.6,286047000.3,N
1553778735.4,286046998.7,N
1553778755.3,286046997.0,N
1553778775.1,286046997.7,N
1553778795.9,286046997.2,N
1553778815.7,286046999.2,N
1553778835.5,286046997.0,N
1553778855.4,286046999.1,N
1553778875.2,286046999.1,N
1553778895.0,286047000.7,N
1553778895.9,286047000.7,N
1553778915.8,286047000.2,N
1553778935.6,286047000.6,N
1553778955.5,286046999.4,N
1553778975.3,286046997.0,N
1553778995.1,286046997.6,N
1553779015.9,286046994.9,Y
1553779035.7,286046999.5,P
1553779055.5,286046997.7,P
1553779075.4,286046999.3,N
1553779125.2,286047000.7,E
1553779135.2,286047001.2,N
1553779155.0,286047001.1,P
1553779155.9,286047001.1,P
1553779175.7,286047000.8,Y
1553779195.6,286046998.4,P
1553779215.4,286046999.2,N
1553779235.3,286046995.4,P
1553779255.1,286046995.8,N
1553779256.0,286046995.8,N
1553779275.8,286046996.2,N
1553779295.7,286046993.4,Y
1553779315.5,286046999.5,P
1553779335.3,286046997.5,N
1553779355.2,286046997.4,N
1553779375.0,286046997.0,Y
1553779375.9,286046997.0,P
1553779395.8,286047000.0,N
1553779415.6,286047000.4,N
1553779435.5,286047003.7,N
1553779455.3,286047004.1,N
1553779475.1,286047001.3,N
1553779495.9,286047002.7,N
1553779515.7,286047001.5,N
1553779535.5,286047004.3,N
1553779555.4,286047003.4,N
1553779575.2,286047003.9,N
1553779595.0,286047002.0,N
1553779595.9,286047002.0,N
1553779615.8,286046999.7,N
1553779635.6,286047000.4,N
1553779655.5,286047000.3,N
1553779675.3,286047001.0,N
1553779695.1,286047000.0,N
1553779715.9,286046999.9,N
1553779735.7,286047002.5,N
1553779755.5,286047001.4,N
1553779775.4,286047003.6,N
1553779795.2,286047003.5,N
1553779815.1,286047001.5,N
1553779816.0,286047001.5,N
1553779835.8,286047002.1,N
1553779855.6,286047001.5,N
1553779875.5,286047002.5,N
1553779895.3,286047001.4,N
1553779915.2,286047001.6,N
1553779935.9,286047000.2,N
1553779955.7,286047002.1,N
1553779975.6,286047002.1,N
1553779995.4,286046999.7,N
1553780015.2,286046999.8,N
1553780035.1,286047000.4,N
1553780036.0,286047000.4,N
1553780055.8,286047002.7,N
1553780075.7,286047000.1,N
1553780095.5,286046999.9,N
1553780115.3,286047002.2,N
1553780135.2,286046998.5,N
1553780155.9,286046998.1,N
1553780175.7,286047000.7,N
1553780195.6,286047000.6,N
1553780215.4,286046999.0,N
1553780235.3,286046996.9,N
1553780255.1,286047001.2,N
1553780275.8,286047000.1,N
1553780295.7,286047004.3,N
1553780315.5,286047003.7,N
1553780335.4,286047004.2,N
1553780355.2,286047001.7,N
1553780375.0,286047002.0,N
1553780375.9,286047002.0,N
1553780395.8,286047000.0,N
1553780415.6,286047002.7,N
1553780435.4,286046998.2,N
1553780455.3,286047000.0,N
1553780475.1,286047000.5,N
1553780495.9,286047001.1,N
1553780515.7,286046998.6,N
1553780535.5,286046998.4,N
1553780555.4,286047000.5,N
1553780575.2,286047000.5,N
1553780595.1,286047000.2,N
1553780596.0,286047000.2,N
1553780615.8,286047000.0,N
1553780635.6,286047000.8,N
1553780655.5,286047000.2,N
1553780675.3,286047001.6,N
1553780695.1,286047001.5,N
1553780715.9,286047001.5,N
1553780735.7,286047002.5,N
1553780755.6,286047002.6,N
1553780775.4,286047000.2,N
1553780795.2,286047000.1,N
1553780815.0,286047001.8,N
1553780815.9,286047001.8,N
1553780835.8,286047001.9,N
1553780855.6,286047002.6,N
1553780875.4,286047002.2,N
1553780895.3,286047004.3,Y
1553780915.1,286047004.1,P
1553780935.9,286047004.3,N
1553780955.7,286047004.4,N
1553780975.5,286047001.4,N
1553780995.4,286047003.9,N
1553781015.2,286047003.9,N
1553781035.0,286047004.4,Y
1553781035.9,286047004.4,P
1553781055.8,286046998.4,N
1553781075.6,286046997.3,N
1553781095.5,286046997.5,N
1553781115.3,286046995.4,N
1553781135.1,286046995.4,N
1553781155.9,286046995.9,N
1553781175.7,286046995.5,N
1553781195.6,286046997.1,N
1553781215.4,286046995.7,N
1553781235.2,286046996.0,N
1553781255.1,286046995.0,N
1553781286.0,286046996.9,E
1553781295.0,286046998.7,N
1553781295.9,286046998.7,P
1553781315.8,286047000.3,P
1553781335.6,286046999.9,N
1553781355.4,286046998.7,N
1553781375.3,286047000.8,N
1553781395.1,286047000.6,N
1553781415.8,286047001.1,N
1553781435.7,286046999.8,N
1553781455.5,286047001.0,N
1553781475.3,286047000.3,N
1553781495.2,286047001.2,N
1553781515.0,286046998.5,N
1553781515.9,286046998.5,N
1553781535.8,286047000.9,N
1553781555.6,286047000.8,N
1553781575.4,286047000.8,N
1553781595.3,286046998.1,N
